Home   Weather   Aurora   Past weeks
Flag for USA

Past Weather in Aurora, Colorado, USA — Yesterday and Last 2 Weeks

Now
34 °F

Partly cloudy.


Feels Like: 26 °F
Forecast: 26 / 19 °F
Wind: 10 mph from Northwest

Location: Buckley Air Force Base

Current Time: Jan 23, 2019 at 7:26:07 pm

Latest Report: Jan 23, 2019 at 5:58 pm


Visibility: 10 mi

Pressure: 29.97 "Hg (24.41 "Hg at 1647m altitude)

Humidity: 44%

Dew Point: 14 °F

Location of AuroraLocation

Past Weather in Aurora — Graph

°F

Aurora Temperature Yesterday

Maximum temperature yesterday: 28 °F (at 1:58 pm)
Minimum temperature yesterday: 14 °F (at 8:58 pm)
Average temperature yesterday: 21 °F

High & Low Weather Summary for the Past Weeks

 TemperatureHumidityPressure
High60 °F (Jan 10, 12:58 pm)100% (Jan 11, 4:58 am)30.47 "Hg (Jan 11, 4:58 am)
Low14 °F (Jan 22, 8:58 pm)18% (Jan 10, 11:58 am)29.26 "Hg (Jan 21, 1:58 pm)
Average33 °F65%30.05 "Hg
* Reported Jan 8 5:58 pm — Jan 23 5:58 pm, Aurora. Weather by CustomWeather, © 2019

Note: Actual official high and low records may vary slightly from our data, if they occured in-between our weather recording intervals... More about our weather records

Advertising

Aurora Weather History for the Previous 24 Hours

Scroll right to see more
 ConditionsComfort  
Time TempWeatherWind HumidityBarometerVisibility
5:58 pm
Wed, Jan 23
34 °FPartly cloudy.10 mph44%29.97 "Hg10 mi
4:58 pm37 °FPartly sunny.20 mph38%29.93 "Hg10 mi
3:58 pm40 °FPassing clouds.6 mph43%29.90 "Hg10 mi
2:58 pm39 °FScattered clouds.10 mph46%29.90 "Hg10 mi
12:58 pm41 °FBroken clouds.18 mph37%29.90 "Hg10 mi
11:58 am38 °FScattered clouds.6 mph36%29.96 "Hg10 mi
10:58 am37 °FScattered clouds.7 mph35%30.02 "Hg10 mi
9:58 am31 °FScattered clouds.3 mph44%30.07 "Hg10 mi
8:58 am27 °FPassing clouds.7 mph44%30.10 "Hg10 mi
7:58 am21 °FPassing clouds.9 mph50%30.14 "Hg10 mi
6:58 am17 °FPassing clouds.9 mph56%30.14 "Hg10 mi
5:58 am18 °FPassing clouds.9 mph54%30.11 "Hg10 mi
4:58 am17 °FPassing clouds.10 mph56%30.10 "Hg10 mi
3:58 am17 °FPassing clouds.12 mph72%30.12 "Hg10 mi
2:58 am16 °FPassing clouds.9 mph69%30.12 "Hg10 mi
1:58 am15 °FPassing clouds.12 mph69%30.14 "Hg10 mi
12:58 am14 °FPassing clouds.14 mph69%30.16 "Hg10 mi
11:58 pm
Tue, Jan 22
15 °FPassing clouds.12 mph69%30.16 "Hg10 mi
10:58 pm15 °FPassing clouds.12 mph73%30.17 "Hg10 mi
9:58 pm15 °FPassing clouds.10 mph80%30.21 "Hg10 mi
8:58 pm14 °FPassing clouds.10 mph81%30.23 "Hg10 mi
7:58 pm15 °FPassing clouds.9 mph76%30.23 "Hg10 mi
Weather by CustomWeather, © 2019

See weather overview